Willimantic, CT

3:13 PM EDT on October 18, 2019 (GMT -0400)
Windham

Weather History for KIJD - September, 2019

Change the Weather History Date:

Friday, September 20, 2019

  Actual Average Record
Temperature  
Mean Temperature 58 °F -  
Max Temperature 78 °F 73 °F 92 °F (1983)
Min Temperature 39 °F 47 °F 30 °F (1959)
Degree Days  
Heating Degree Days 6    
Growing Degree Days 8 (Base 50)    
Moisture  
Dew Point 44 °F    
Average Humidity 85    
Maximum Humidity 100    
Minimum Humidity 38    
Precipitation  
Precipitation 0.00 in - - ()
Sea Level Pressure  
Sea Level Pressure 30.23 in    
Wind  
Wind Speed 1 mph ()    
Max Wind Speed 10 mph    
Max Gust Speed -    
Visibility 4.9 miles    
Events Fog    
Averages and records for this station are not official NWS values.
T = Trace of Precipitation, MM = Missing Value Source: Averaged Metar Reports

Daily Weather History Graph

Daily Weather History Graph

Search for Another Location

Airport or City:

Astronomy

Sep. 20, 2019 Rise Set
Actual Time 6:33 AM EDT 6:49 PM EDT
Civil Twilight 6:06 AM EDT 7:17 PM EDT
Nautical Twilight 5:33 AM EDT 7:50 PM EDT
Astronomical Twilight 4:59 AM EDT 8:23 PM EDT
Moon 10:32 PM EDT (9/20) 12:40 PM EDT (9/20)
Length of Visible Light 13h 11m
Length of Day
12h 16m
Waning Gibbous, 65% of the Moon is Illuminated
Sep 20
Waning Gibbous
Sep 21
Last Quarter
Sep 28
New
Oct 5
First Quarter
Oct 13
Full

Hourly Weather History & Observations

Time (EDT) Temp. Windchill Dew Point Humidity Pressure Visibility Wind Dir Wind Speed Gust Speed Precip Events Conditions
12:20 AM 46.9 °F - 45.0 °F 93% 30.28 in 2.5 mi Calm Calm - N/A   Mostly Cloudy
12:33 AM 46.0 °F - 44.1 °F 93% 30.27 in 9.0 mi Calm Calm - N/A   Mostly Cloudy
12:39 AM 46.0 °F - 45.0 °F 96% 30.27 in 1.8 mi Calm Calm - N/A   Overcast
12:48 AM 46.4 °F - 44.6 °F 93% 30.27 in 0.5 mi Calm Calm - N/A Fog Fog
12:52 AM 46.0 °F - 44.1 °F 93% 30.27 in 0.8 mi Calm Calm - N/A   Overcast
12:55 AM 46.0 °F - 44.1 °F 93% 30.27 in 2.5 mi Calm Calm - N/A   Overcast
1:02 AM 46.0 °F - 44.1 °F 93% 30.27 in 10.0 mi Calm Calm - N/A   Overcast
1:12 AM 46.0 °F - 44.1 °F 93% 30.27 in 1.5 mi Calm Calm - N/A   Overcast
1:20 AM 46.0 °F - 45.0 °F 96% 30.27 in 0.2 mi Calm Calm - N/A Fog Fog
1:28 AM 45.0 °F - 45.0 °F 100% 30.27 in 0.5 mi Calm Calm - N/A Fog Fog
1:49 AM 44.1 °F 42.5 °F 42.1 °F 93% 30.27 in 10.0 mi NNW 3.5 mph - N/A   Scattered Clouds
2:52 AM 43.0 °F - 41.0 °F 93% 30.25 in 10.0 mi Calm Calm - N/A   Partly Cloudy
3:05 AM 43.0 °F - 41.0 °F 93% 30.25 in 10.0 mi Calm Calm - N/A   Mostly Cloudy
3:24 AM 43.0 °F - 42.1 °F 97% 30.25 in 1.8 mi Calm Calm - N/A   Overcast
3:42 AM 43.0 °F - 42.1 °F 97% 30.24 in 2.5 mi Calm Calm - N/A   Overcast
3:49 AM 42.8 °F - 42.8 °F 100% 30.24 in 0.8 mi Calm Calm - N/A   Mist
3:52 AM 42.1 °F - 42.1 °F 100% 30.24 in 0.8 mi Calm Calm - N/A   Mist
4:00 AM 42.1 °F - 39.9 °F 92% 30.24 in 2.0 mi Calm Calm - N/A   Mostly Cloudy
4:07 AM 41.0 °F - 39.9 °F 96% 30.24 in 10.0 mi Calm Calm - N/A   Mostly Cloudy
4:23 AM 42.1 °F - 39.9 °F 92% 30.24 in 3.0 mi Calm Calm - N/A   Mostly Cloudy
4:25 AM 42.1 °F - 41.0 °F 96% 30.24 in 1.8 mi Calm Calm - N/A   Overcast
4:29 AM 42.1 °F - 41.0 °F 96% 30.24 in 0.8 mi Calm Calm - N/A   Overcast
4:45 AM 42.1 °F - 41.0 °F 96% 30.24 in 0.2 mi Calm Calm - N/A Fog Fog
4:52 AM 42.1 °F - 41.0 °F 96% 30.24 in 0.2 mi Calm Calm - N/A Fog Fog
5:13 AM 41.0 °F - 41.0 °F 100% 30.24 in 1.0 mi Calm Calm - N/A   Mist
5:17 AM 41.0 °F - 41.0 °F 100% 30.24 in 3.0 mi Calm Calm - N/A   Overcast
5:24 AM 41.0 °F 39.0 °F 41.0 °F 100% 30.24 in 1.8 mi NNW 3.5 mph - N/A   Overcast
5:36 AM 39.9 °F 37.8 °F 39.0 °F 97% 30.24 in 3.0 mi NNW 3.5 mph - N/A   Overcast
5:42 AM 39.9 °F 37.8 °F 39.0 °F 97% 30.24 in 1.8 mi NNW 3.5 mph - N/A   Overcast
5:52 AM 39.9 °F 37.8 °F 39.0 °F 97% 30.25 in 1.8 mi North 3.5 mph - N/A   Overcast
5:57 AM 39.9 °F - 39.0 °F 97% 30.25 in 3.0 mi Calm Calm - N/A   Overcast
5:59 AM 39.9 °F - 39.0 °F 97% 30.25 in 1.5 mi Calm Calm - N/A   Overcast
6:08 AM 39.9 °F 37.8 °F 39.0 °F 97% 30.25 in 0.5 mi NNW 3.5 mph - N/A Fog Fog
6:25 AM 41.0 °F - 39.9 °F 96% 30.25 in 0.2 mi Calm Calm - N/A Fog Fog
6:52 AM 39.9 °F - 39.0 °F 97% 30.26 in 0.2 mi Calm Calm - N/A Fog Fog
7:11 AM 39.9 °F - 39.0 °F 97% 30.25 in 1.0 mi Calm Calm - N/A   Mist
7:18 AM 39.9 °F - 39.0 °F 97% 30.25 in 0.2 mi Calm Calm - N/A Fog Fog
7:31 AM 39.9 °F - 39.0 °F 97% 30.25 in 3.0 mi Calm Calm - N/A   Mostly Cloudy
7:52 AM 41.0 °F - 39.9 °F 96% 30.27 in 10.0 mi Calm Calm - N/A   Scattered Clouds
8:52 AM 48.0 °F - 45.0 °F 89% 30.27 in 10.0 mi Calm Calm - N/A   Clear
9:52 AM 57.0 °F - 48.0 °F 72% 30.25 in 10.0 mi Calm Calm - N/A   Clear
10:52 AM 66.9 °F - 51.1 °F 57% 30.23 in 10.0 mi Calm Calm - N/A   Clear
11:23 AM 70.0 °F - 48.0 °F 46% 30.23 in 1.8 mi NW 10.4 mph - N/A   Haze
11:31 AM 70.0 °F - 46.9 °F 44% 30.23 in - NNW 9.2 mph - N/A   Clear
11:52 AM 73.0 °F - 48.0 °F 41% 30.22 in - NNW 6.9 mph - N/A   Clear
12:52 PM 78.1 °F - 51.1 °F 39% 30.18 in 10.0 mi NNW 8.1 mph - N/A   Clear
1:52 PM 75.0 °F - 51.1 °F 43% 30.16 in 10.0 mi West 9.2 mph - N/A   Clear
2:52 PM 75.9 °F - 51.1 °F 42% 30.14 in 10.0 mi West 6.9 mph - N/A   Clear
3:52 PM 75.9 °F - 50.0 °F 40% 30.14 in 10.0 mi West 8.1 mph - N/A   Clear
4:52 PM 75.9 °F - 48.9 °F 38% 30.13 in 10.0 mi WNW 4.6 mph - N/A   Clear
5:52 PM 73.9 °F - 52.0 °F 46% 30.14 in 10.0 mi Calm Calm - N/A   Clear
6:52 PM 66.0 °F - 57.0 °F 73% 30.14 in 10.0 mi Calm Calm - N/A   Clear
7:52 PM 62.1 °F - 55.9 °F 80% 30.16 in 10.0 mi Calm Calm - N/A   Clear
8:52 PM 59.0 °F - 55.9 °F 90% 30.17 in 10.0 mi Calm Calm - N/A   Clear
9:52 PM 55.9 °F - 54.0 °F 93% 30.17 in 10.0 mi Calm Calm - N/A   Clear
10:52 PM 54.0 °F - 53.1 °F 97% 30.18 in 10.0 mi Calm Calm - N/A   Clear
11:52 PM 53.1 °F - 52.0 °F 96% 30.17 in 10.0 mi ENE 3.5 mph - N/A   Clear